AAL1029 KMCO-KMIA

Flight info

Callsign AAL1029
Flight time N/A
Altitude 23000
Route DDANY3 DDANY CSTAL3
Aircraft B738/M-SDE2E3FGHIRWXY/LB1

Departure

Time 2026-05-04 23:27
Airport Orlando International Airport (KMCO)

Arrival

Time N/A
Airport Miami International Airport (KMIA)
Time Latitude Longitude Altitude Speed Heading
2026-05-04 22:44 28.42629 -81.31221 101 ft 0 kts 325°
2026-05-04 23:05 28.42585 -81.31162 101 ft 7 kts 261°
2026-05-04 23:05 28.42593 -81.31143 101 ft 0 kts 214°
2026-05-04 23:08 28.42592 -81.31143 101 ft 0 kts 214°
2026-05-04 23:08 28.42592 -81.31144 101 ft 0 kts 214°
2026-05-04 23:09 28.42629 -81.31221 101 ft 14 kts 325°
2026-05-04 23:12 28.42630 -81.31221 101 ft 0 kts 325°
2026-05-04 23:15 28.42631 -81.31222 101 ft 0 kts 325°
2026-05-04 23:16 28.42576 -81.31177 101 ft 24 kts 252°
2026-05-04 23:16 28.42569 -81.31159 100 ft 0 kts 212°
2026-05-04 23:17 28.42568 -81.31160 100 ft 1 kts 212°
2026-05-04 23:17 28.42561 -81.31165 100 ft 2 kts 212°
2026-05-04 23:17 28.42543 -81.31177 100 ft 4 kts 211°
2026-05-04 23:18 28.42511 -81.31201 100 ft 6 kts 213°
2026-05-04 23:18 28.42470 -81.31230 99 ft 7 kts 212°
2026-05-04 23:18 28.42427 -81.31260 99 ft 7 kts 206°
2026-05-04 23:18 28.42376 -81.31274 99 ft 8 kts 169°
2026-05-04 23:19 28.42343 -81.31219 99 ft 10 kts 97°
2026-05-04 23:19 28.42331 -81.31123 99 ft 14 kts 98°
2026-05-04 23:19 28.42318 -81.31014 99 ft 14 kts 92°
2026-05-04 23:19 28.42322 -81.30904 99 ft 15 kts 85°
2026-05-04 23:20 28.42330 -81.30779 105 ft 16 kts 85°
2026-05-04 23:20 28.42340 -81.30642 105 ft 19 kts 85°
2026-05-04 23:20 28.42351 -81.30480 105 ft 22 kts 86°
2026-05-04 23:20 28.42359 -81.30284 101 ft 25 kts 88°
2026-05-04 23:21 28.42360 -81.30097 103 ft 23 kts 89°
2026-05-04 23:21 28.42361 -81.29946 103 ft 16 kts 89°
2026-05-04 23:21 28.42354 -81.29822 101 ft 16 kts 120°
2026-05-04 23:21 28.42256 -81.29793 101 ft 15 kts 179°
2026-05-04 23:22 28.42154 -81.29790 101 ft 14 kts 180°
2026-05-04 23:22 28.42056 -81.29790 101 ft 14 kts 179°
2026-05-04 23:22 28.41963 -81.29788 101 ft 13 kts 179°
2026-05-04 23:22 28.41873 -81.29789 101 ft 13 kts 178°
2026-05-04 23:23 28.41785 -81.29786 101 ft 12 kts 182°
2026-05-04 23:23 28.41700 -81.29787 101 ft 12 kts 179°
2026-05-04 23:23 28.41617 -81.29786 101 ft 12 kts 180°
2026-05-04 23:23 28.41536 -81.29785 101 ft 11 kts 179°
2026-05-04 23:24 28.41457 -81.29784 101 ft 11 kts 180°
2026-05-04 23:24 28.41378 -81.29784 99 ft 12 kts 179°
2026-05-04 23:24 28.41266 -81.29782 100 ft 19 kts 179°
2026-05-04 23:24 28.41134 -81.29781 100 ft 19 kts 179°
2026-05-04 23:25 28.41006 -81.29779 99 ft 18 kts 179°
2026-05-04 23:25 28.40888 -81.29777 99 ft 6 kts 179°
2026-05-04 23:25 28.40846 -81.29769 99 ft 6 kts 158°
2026-05-04 23:25 28.40821 -81.29729 100 ft 7 kts 100°
2026-05-04 23:26 28.40821 -81.29674 98 ft 8 kts 89°
2026-05-04 23:26 28.40821 -81.29600 96 ft 12 kts 87°
2026-05-04 23:26 28.40867 -81.29559 96 ft 0 kts
2026-05-04 23:26 28.40876 -81.29559 96 ft 11 kts
2026-05-04 23:27 28.41198 -81.29563 100 ft 81 kts 359°
2026-05-04 23:27 28.41976 -81.29533 110 ft 139 kts 359°
2026-05-04 23:27 28.43011 -81.29640 424 ft 159 kts
2026-05-04 23:27 28.44132 -81.29811 1095 ft 164 kts
2026-05-04 23:28 28.45186 -81.29390 1676 ft 163 kts 44°
2026-05-04 23:28 28.45940 -81.28373 2116 ft 183 kts 55°
2026-05-04 23:28 28.46770 -81.27145 2347 ft 208 kts 54°
2026-05-04 23:28 28.47695 -81.25762 2516 ft 231 kts 54°
2026-05-04 23:29 28.48706 -81.24244 2881 ft 246 kts 54°
2026-05-04 23:29 28.49753 -81.22658 3530 ft 253 kts 58°
2026-05-04 23:29 28.50509 -81.20846 4216 ft 260 kts 75°
2026-05-04 23:29 28.50920 -81.18790 4758 ft 274 kts 79°
2026-05-04 23:30 28.51147 -81.16607 5381 ft 281 kts 96°
2026-05-04 23:30 28.50709 -81.14434 6152 ft 282 kts 107°
2026-05-04 23:30 28.50188 -81.12275 6931 ft 286 kts 107°
2026-05-04 23:30 28.49678 -81.10092 7660 ft 290 kts 106°
2026-05-04 23:31 28.49164 -81.07848 8345 ft 298 kts 106°
2026-05-04 23:31 28.48563 -81.05585 9179 ft 298 kts 117°
2026-05-04 23:31 28.47309 -81.03731 9941 ft 300 kts 141°
2026-05-04 23:31 28.45665 -81.02197 10432 ft 315 kts 143°
2026-05-04 23:32 28.43875 -81.00598 10620 ft 340 kts 144°
2026-05-04 23:32 28.41966 -80.98897 10990 ft 356 kts 143°
2026-05-04 23:32 28.40000 -80.97131 11628 ft 362 kts 143°
2026-05-04 23:32 28.38017 -80.95338 12396 ft 365 kts 142°
2026-05-04 23:33 28.36029 -80.93532 13221 ft 366 kts 142°
2026-05-04 23:33 28.34016 -80.91699 13844 ft 375 kts 142°
2026-05-04 23:33 28.31994 -80.89859 14560 ft 377 kts 143°
2026-05-04 23:33 28.29942 -80.87994 15316 ft 380 kts 143°
2026-05-04 23:34 28.28007 -80.85907 15913 ft 391 kts 128°
2026-05-04 23:34 28.26745 -80.83144 16551 ft 399 kts 113°
2026-05-04 23:34 28.25732 -80.80187 17174 ft 405 kts 112°
2026-05-04 23:34 28.24711 -80.77175 17757 ft 412 kts 113°
2026-05-04 23:35 28.23645 -80.74125 18347 ft 418 kts 114°
2026-05-04 23:35 28.22513 -80.71068 18874 ft 422 kts 120°
2026-05-04 23:35 28.20761 -80.68433 19408 ft 418 kts 141°
2026-05-04 23:35 28.18394 -80.66560 20013 ft 412 kts 159°
2026-05-04 23:36 28.15706 -80.65491 20596 ft 409 kts 170°
2026-05-04 23:36 28.12979 -80.64681 21152 ft 413 kts 171°
2026-05-04 23:36 28.10169 -80.63885 21679 ft 417 kts 171°
2026-05-04 23:36 28.07345 -80.63084 22222 ft 421 kts 171°
2026-05-04 23:37 28.04493 -80.62261 22729 ft 425 kts 171°
2026-05-04 23:37 28.01602 -80.61414 23011 ft 428 kts 171°
2026-05-04 23:37 27.98714 -80.60555 23043 ft 430 kts 171°
2026-05-04 23:37 27.95818 -80.59688 23051 ft 431 kts 171°
2026-05-04 23:38 27.92916 -80.58816 23052 ft 430 kts 171°
2026-05-04 23:38 27.90057 -80.57957 23050 ft 430 kts 171°
2026-05-04 23:38 27.87169 -80.57090 23051 ft 430 kts 171°
2026-05-04 23:38 27.84280 -80.56225 23050 ft 430 kts 171°
2026-05-04 23:39 27.81383 -80.55358 23044 ft 429 kts 171°
2026-05-04 23:39 27.78497 -80.54496 23047 ft 429 kts 171°
2026-05-04 23:39 27.75605 -80.53632 23042 ft 429 kts 171°
2026-05-04 23:39 27.72720 -80.52770 23023 ft 429 kts 171°
2026-05-04 23:40 27.69829 -80.51907 23037 ft 428 kts 171°
2026-05-04 23:40 27.66949 -80.51048 23044 ft 428 kts 171°
2026-05-04 23:40 27.64080 -80.50127 23042 ft 431 kts 168°
2026-05-04 23:40 27.61232 -80.49041 23054 ft 432 kts 166°
2026-05-04 23:41 27.58439 -80.47904 23040 ft 433 kts 165°
2026-05-04 23:41 27.55604 -80.46734 23040 ft 433 kts 165°
2026-05-04 23:41 27.53053 -80.45689 23033 ft 433 kts 166°
2026-05-04 23:41 27.50219 -80.44542 23037 ft 433 kts 166°
2026-05-04 23:42 27.47379 -80.43406 23032 ft 433 kts 166°
2026-05-04 23:42 27.44541 -80.42279 23033 ft 433 kts 166°
2026-05-04 23:42 27.41699 -80.41155 23039 ft 433 kts 166°
2026-05-04 23:42 27.38857 -80.40033 23031 ft 433 kts 166°
2026-05-04 23:43 27.36014 -80.38911 23036 ft 433 kts 166°
2026-05-04 23:43 27.33172 -80.37789 23033 ft 433 kts 166°
2026-05-04 23:43 27.30367 -80.36683 23036 ft 433 kts 166°
2026-05-04 23:43 27.27526 -80.35562 23032 ft 432 kts 166°
2026-05-04 23:44 27.24650 -80.34428 23028 ft 432 kts 166°
2026-05-04 23:44 27.21842 -80.33322 23030 ft 432 kts 166°
2026-05-04 23:44 27.19000 -80.32208 23028 ft 432 kts 166°
2026-05-04 23:44 27.16158 -80.31102 23032 ft 431 kts 166°
2026-05-04 23:45 27.13321 -80.30003 23004 ft 431 kts 167°
2026-05-04 23:45 27.10490 -80.28906 23026 ft 431 kts 167°
2026-05-04 23:45 27.07655 -80.27807 23028 ft 431 kts 167°
2026-05-04 23:45 27.04827 -80.26711 23030 ft 431 kts 167°
2026-05-04 23:46 27.02001 -80.25615 22988 ft 426 kts 167°
2026-05-04 23:46 26.99226 -80.24536 22588 ft 419 kts 167°
2026-05-04 23:46 26.96474 -80.23476 21963 ft 418 kts 167°
2026-05-04 23:46 26.93751 -80.22443 21723 ft 408 kts 167°
2026-05-04 23:47 26.91075 -80.21431 21467 ft 404 kts 167°
2026-05-04 23:47 26.88436 -80.20440 21232 ft 407 kts 167°
2026-05-04 23:47 26.85741 -80.19428 20995 ft 410 kts 167°
2026-05-04 23:47 26.83039 -80.18408 20550 ft 407 kts 167°
2026-05-04 23:48 26.80374 -80.17400 20086 ft 402 kts 167°
2026-05-04 23:48 26.77726 -80.16398 19594 ft 399 kts 167°
2026-05-04 23:48 26.75102 -80.15408 19116 ft 396 kts 167°
2026-05-04 23:48 26.72516 -80.14432 18836 ft 387 kts 167°
2026-05-04 23:49 26.69977 -80.13520 18447 ft 380 kts 171°
2026-05-04 23:49 26.67423 -80.12822 17977 ft 375 kts 173°
2026-05-04 23:49 26.64889 -80.12184 17491 ft 372 kts 173°
2026-05-04 23:49 26.62370 -80.11532 17035 ft 370 kts 172°
2026-05-04 23:50 26.59880 -80.10867 16570 ft 367 kts 172°
2026-05-04 23:50 26.57400 -80.10228 16126 ft 363 kts 172°
2026-05-04 23:50 26.54941 -80.09618 15683 ft 360 kts 172°
2026-05-04 23:50 26.52497 -80.09015 15241 ft 358 kts 172°
2026-05-04 23:51 26.51709 -80.08820 15082 ft 357 kts 172°
2026-05-04 23:52 26.51276 -80.08713 15004 ft 356 kts 172°
2026-05-04 23:52 26.48791 -80.08092 14960 ft 338 kts 172°
2026-05-04 23:52 26.46598 -80.07539 15007 ft 320 kts 172°
2026-05-04 23:52 26.44403 -80.07032 14305 ft 329 kts 173°
2026-05-04 23:53 26.42088 -80.06553 13500 ft 342 kts 173°
2026-05-04 23:53 26.39750 -80.06070 13063 ft 339 kts 173°
2026-05-04 23:53 26.37474 -80.05518 12874 ft 330 kts 170°
2026-05-04 23:53 26.35281 -80.04900 12719 ft 320 kts 169°
2026-05-04 23:54 26.33859 -80.04496 12626 ft 313 kts 169°
2026-05-04 23:54 26.31779 -80.03910 12498 ft 304 kts 170°
2026-05-04 23:54 26.29757 -80.03350 12375 ft 297 kts 170°
2026-05-04 23:54 26.27757 -80.02802 12262 ft 294 kts 170°
2026-05-04 23:55 26.25757 -80.02302 12147 ft 295 kts 177°
2026-05-04 23:55 26.23739 -80.02483 12045 ft 292 kts 195°
2026-05-04 23:55 26.19746 -80.03436 11780 ft 291 kts 196°
2026-05-04 23:56 26.17767 -80.03905 11663 ft 290 kts 196°
2026-05-04 23:56 26.15800 -80.04365 11542 ft 288 kts 196°
2026-05-04 23:56 26.13842 -80.04818 11411 ft 287 kts 196°
2026-05-04 23:56 26.11912 -80.05261 11303 ft 286 kts 195°
2026-05-04 23:57 26.09958 -80.05708 11183 ft 286 kts 195°
2026-05-04 23:57 26.08004 -80.06154 11066 ft 286 kts 195°
2026-05-04 23:57 26.06044 -80.06615 10875 ft 289 kts 197°
2026-05-04 23:57 26.04070 -80.07126 10644 ft 292 kts 197°
2026-05-04 23:58 26.02091 -80.07648 10403 ft 293 kts 197°
2026-05-04 23:58 26.00116 -80.08167 10167 ft 289 kts 197°
2026-05-04 23:58 25.98176 -80.08672 9966 ft 283 kts 197°
2026-05-04 23:58 25.96316 -80.09155 9722 ft 278 kts 197°
2026-05-04 23:59 25.94437 -80.09643 9468 ft 274 kts 196°
2026-05-04 23:59 25.92630 -80.10230 9193 ft 267 kts 210°
2026-05-04 23:59 25.91183 -80.11470 8979 ft 260 kts 227°
2026-05-04 23:59 25.89957 -80.12940 8763 ft 260 kts 230°
2026-05-05 00:00 25.88770 -80.14453 8544 ft 259 kts 234°
2026-05-05 00:00 25.88187 -80.15600 8380 ft 258 kts 251°
2026-05-05 00:00 25.87801 -80.18108 8273 ft 239 kts 266°
2026-05-05 00:00 25.87770 -80.19892 8179 ft 223 kts 268°
2026-05-05 00:01 25.87747 -80.21553 8080 ft 207 kts 268°
2026-05-05 00:01 25.87714 -80.23097 7944 ft 194 kts 268°
2026-05-05 00:01 25.87674 -80.24568 7704 ft 189 kts 267°
2026-05-05 00:01 25.87630 -80.26068 7115 ft 202 kts 267°
2026-05-05 00:02 25.87581 -80.27661 6603 ft 209 kts 267°
2026-05-05 00:02 25.87691 -80.29275 6099 ft 214 kts 289°
2026-05-05 00:02 25.88382 -80.30737 5720 ft 213 kts 297°
2026-05-05 00:02 25.89079 -80.32165 5295 ft 211 kts 297°
2026-05-05 00:03 25.89778 -80.33606 4923 ft 207 kts 298°
2026-05-05 00:03 25.90458 -80.35002 4547 ft 205 kts 298°
2026-05-05 00:03 25.91139 -80.36403 4086 ft 207 kts 300°
2026-05-05 00:03 25.91831 -80.37823 3661 ft 209 kts 300°
2026-05-05 00:04 25.92503 -80.39206 3426 ft 203 kts 301°
2026-05-05 00:04 25.93172 -80.40582 3178 ft 201 kts 301°
2026-05-05 00:04 25.93757 -80.41986 3037 ft 204 kts 285°
2026-05-05 00:04 25.93772 -80.43553 3032 ft 201 kts 267°
2026-05-05 00:05 25.93730 -80.45113 3011 ft 204 kts 274°
2026-05-05 00:05 25.93789 -80.46698 3014 ft 205 kts 270°
2026-05-05 00:05 25.93498 -80.48226 2983 ft 203 kts 239°
2026-05-05 00:05 25.92489 -80.49231 3008 ft 194 kts 199°
2026-05-05 00:06 25.91169 -80.49321 2997 ft 192 kts 159°
2026-05-05 00:06 25.90012 -80.48630 3020 ft 189 kts 144°
2026-05-05 00:06 25.88959 -80.47777 2992 ft 187 kts 131°
2026-05-05 00:06 25.88290 -80.46572 3008 ft 182 kts 116°
2026-05-05 00:07 25.87651 -80.45347 2958 ft 186 kts 118°
2026-05-05 00:07 25.86993 -80.44090 2744 ft 189 kts 118°
2026-05-05 00:07 25.86351 -80.42839 2506 ft 183 kts 117°
2026-05-05 00:07 25.85735 -80.41634 2269 ft 173 kts 117°
2026-05-05 00:08 25.85162 -80.40514 2066 ft 168 kts 115°
2026-05-05 00:08 25.84603 -80.39413 1835 ft 157 kts 115°
2026-05-05 00:08 25.84084 -80.38394 1639 ft 146 kts 114°
2026-05-05 00:08 25.83600 -80.37443 1440 ft 138 kts 114°
2026-05-05 00:09 25.83127 -80.36512 1278 ft 140 kts 114°
2026-05-05 00:09 25.82645 -80.35561 1090 ft 143 kts 116°
2026-05-05 00:09 25.82150 -80.34594 922 ft 143 kts 115°
2026-05-05 00:09 25.81669 -80.33628 723 ft 142 kts 115°
2026-05-05 00:10 25.81176 -80.32668 577 ft 142 kts 117°
2026-05-05 00:10 25.80664 -80.31694 357 ft 146 kts 117°
2026-05-05 00:10 25.80170 -80.30720 163 ft 142 kts 116°
2026-05-05 00:10 25.79700 -80.29783 22 ft 135 kts 115°